Location: Newark
(13.6797°N, 8.5297°E)
Time: 14:57:36
(UTC+00:00)

Altair - Pass Details

Date: 04 February 2020
Orbit: 1502 x 1682 km, 47.2° (Epoch: 22 February)

Event Time Altitude Azimuth Distance (km) Brightness Sun altitude
Rises 03:27:22 0° 228° (SW) 4,699 - -35.1°
Reaches altitude 10° 03:30:23 10° 230° (SW) 3,738 - -34.4°
Exits shadow 03:39:12 68° 289° (WNW) 1,701 7.3 -32.3°
Maximum altitude 03:39:50 69° 313° (NW) 1,689 7.4 -32.2°
Drops below altitude 10° 03:49:42 10° 36° (NE) 3,882 9.8 -29.8°
Sets 03:52:56 0° 38° (NE) 4,888 10.5 -29.0°
